FW8889 Weather Reports


time (UTC)temp
C
wind
direction
speed
KPH
gust
KPH
rain 1hr
cm
rain 24hr
cm
rain mn
cm
humidity
%
barometer
mb
20260509101554 3 0 0.0 0.0 0.00 0.00 0.00 87 1015.7
20260509100051 2 0 0.0 0.0 0.00 0.00 0.00 87 1015.4
20260509094545 2 0 0.0 0.0 0.00 0.00 0.00 87 1015.4
20260509093057 2 0 0.0 0.0 0.00 0.00 0.00 87 1015.2
20260509091551 2 0 0.0 0.0 0.00 0.00 0.00 86 1015.2
20260509090052 2 0 0.0 0.0 0.00 0.00 0.00 86 1015.1
20260509084550 3 0 0.0 1.6 0.00 0.00 0.00 86 1014.9
20260509083052 3 0 0.0 0.0 0.00 0.00 0.00 86 1015.0
20260509081551 3 0 0.0 0.0 0.00 0.00 0.00 85 1015.0
20260509080048 3 0 0.0 0.0 0.00 0.00 0.00 84 1015.1
20260509074559 3 0 0.0 0.0 0.00 0.00 0.00 83 1015.0
20260509073101 3 0 0.0 0.0 0.00 0.00 0.00 83 1014.7
20260509071546 3 0 0.0 0.0 0.00 0.00 0.00 82 1014.8
20260509070049 3 0 0.0 0.0 0.00 0.00 0.00 82 1014.6
20260509064558 4 0 0.0 0.0 0.00 0.00 0.00 81 1014.5
20260509063050 4 0 0.0 0.0 0.00 0.00 0.00 80 1014.7
20260509061559 4 0 0.0 0.0 0.00 0.00 0.00 79 1014.9
20260509060054 5 0 0.0 0.0 0.00 0.00 0.00 77 1014.6
20260509054541 5 0 0.0 0.0 0.00 0.00 0.00 76 1014.6
20260509053049 5 0 0.0 1.6 0.00 0.00 0.00 75 1014.7
20260509051551 5 0 0.0 0.0 0.00 0.00 0.00 74 1014.6
20260509050050 6 0 0.0 0.0 0.00 0.00 0.00 73 1014.5
20260509044550 6 0 0.0 0.0 0.00 0.00 0.00 71 1014.4
20260509043057 6 0 0.0 0.0 0.00 0.00 0.00 69 1014.4
20260509041551 7 0 0.0 0.0 0.00 0.00 0.00 68 1014.3
20260509040058 7 0 0.0 0.0 0.00 0.00 0.00 67 1014.2
20260509034554 7 0 0.0 1.6 0.00 0.00 0.00 65 1014.1
20260509033054 8 0 0.0 0.0 0.00 0.00 0.00 62 1014.0
20260509031552 8 0 0.0 0.0 0.00 0.00 0.00 60 1014.0
20260509030053 9 0 0.0 0.0 0.00 0.00 0.00 57 1013.9
20260509024546 10 0 0.0 0.0 0.00 0.00 0.00 56 1013.7
20260509023053 10 0 0.0 1.6 0.00 0.00 0.00 54 1013.8
20260509021549 10 0 0.0 0.0 0.00 0.00 0.00 53 1013.4
20260509020054 10 0 0.0 1.6 0.00 0.00 0.00 52 1013.3
20260509014548 10 0 0.0 0.0 0.00 0.00 0.00 49 1013.1
20260509013055 11 0 0.0 3.2 0.00 0.00 0.00 49 1012.9
20260509011545 11 0 0.0 3.2 0.00 0.00 0.00 48 1012.5
20260509010046 11 95 1.6 4.8 0.00 0.00 0.00 48 1012.1
20260509004610 11 0 0.0 3.2 0.00 0.00 0.00 47 1011.8
20260509003053 11 333 0.0 6.4 0.00 0.00 0.00 44 1011.5
20260509001553 12 0 0.0 3.2 0.00 0.00 0.00 44 1011.3
20260509000048 12 151 0.0 3.2 0.00 0.00 0.00 42 1011.2
20260508234550 12 329 0.0 9.7 0.00 0.00 0.00 39 1010.8
20260508233051 13 69 0.0 4.8 0.00 0.00 0.00 40 1010.5
20260508231552 13 0 0.0 4.8 0.00 0.00 0.00 39 1010.3
20260508230053 13 133 1.6 6.4 0.00 0.00 0.00 38 1010.0
20260508224553 14 0 1.6 11.3 0.00 0.00 0.00 37 1009.9
20260508223050 14 94 0.0 12.9 0.00 0.00 0.00 36 1009.8
20260508221551 14 355 1.6 11.3 0.00 0.00 0.00 35 1009.9
20260508220052 14 281 1.6 8.0 0.00 0.00 0.00 37 1009.9
20260508214601 15 154 3.2 9.7 0.00 0.00 0.00 36 1009.7
20260508213050 16 352 1.6 8.0 0.00 0.00 0.00 33 1009.5
20260508211548 16 159 3.2 11.3 0.00 0.00 0.00 33 1009.5
20260508210055 15 289 1.6 6.4 0.00 0.00 0.00 35 1009.5
20260508204550 15 178 1.6 11.3 0.00 0.00 0.00 34 1009.3
20260508203053 15 0 1.6 14.5 0.00 0.00 0.00 35 1009.3
20260508201549 15 0 1.6 9.7 0.00 0.00 0.00 36 1009.1
20260508200050 15 106 3.2 20.9 0.00 0.00 0.00 34 1009.2
20260508194547 15 256 3.2 9.7 0.00 0.00 0.00 33 1009.2
20260508193102 14 0 3.2 12.9 0.00 0.00 0.00 36 1009.2
20260508191557 14 115 1.6 11.3 0.00 0.00 0.00 36 1009.3
20260508190104 15 311 1.6 16.1 0.00 0.00 0.00 37 1009.2
20260508184559 15 309 3.2 9.7 0.00 0.00 0.00 34 1009.2
20260508183101 15 324 1.6 14.5 0.00 0.00 0.00 41 1009.3
20260508181551 15 129 3.2 17.7 0.00 0.00 0.00 37 1009.3
20260508180105 15 311 4.8 16.1 0.00 0.00 0.00 36 1009.2
20260508174608 15 229 3.2 11.3 0.00 0.00 0.00 38 1009.1
20260508173051 15 321 3.2 12.9 0.00 0.00 0.00 39 1009.2
20260508171551 15 71 3.2 11.3 0.00 0.00 0.00 35 1009.2
20260508170059 15 305 3.2 14.5 0.00 0.00 0.00 37 1009.1
20260508164553 14 113 1.6 11.3 0.00 0.00 0.00 43 1009.1
20260508163051 13 0 0.0 6.4 0.00 0.00 0.00 43 1009.2
20260508161548 13 168 4.8 12.9 0.00 0.00 0.00 38 1009.5
20260508160049 13 198 4.8 14.5 0.00 0.00 0.00 37 1009.7
20260508154553 13 143 3.2 11.3 0.00 0.00 0.00 46 1009.8
20260508153054 14 219 1.6 9.7 0.00 0.00 0.00 38 1009.8
20260508151550 13 194 1.6 11.3 0.00 0.00 0.00 37 1009.8
20260508150051 13 200 1.6 14.5 0.00 0.00 0.00 38 1009.8
20260508144552 12 290 1.6 8.0 0.00 0.00 0.00 42 1009.8
20260508143055 12 278 1.6 9.7 0.00 0.00 0.00 42 1010.0
20260508141554 12 61 3.2 16.1 0.00 0.00 0.00 39 1010.1
20260508140044 12 163 0.0 9.7 0.00 0.00 0.00 43 1010.5
20260508134551 12 142 3.2 14.5 0.00 0.00 0.00 44 1010.6
20260508133048 11 126 1.6 9.7 0.00 0.00 0.00 45 1010.3
20260508131603 11 310 1.6 11.3 0.00 0.00 0.00 47 1010.4
20260508130048 10 352 1.6 6.4 0.00 0.00 0.00 48 1010.3
20260508124551 10 245 1.6 9.7 0.00 0.00 0.00 49 1010.3
20260508123106 9 163 1.6 17.7 0.00 0.00 0.00 54 1010.6
20260508121555 8 144 3.2 9.7 0.00 0.00 0.00 56 1010.7
20260508120106 8 11 0.0 6.4 0.00 0.00 0.00 58 1010.6
20260508114558 7 0 0.0 8.0 0.00 0.00 0.00 63 1010.5
20260508113100 5 57 0.0 3.2 0.00 0.00 0.00 70 1010.6
20260508111551 5 0 0.0 1.6 0.00 0.00 0.00 76 1010.5
20260508110100 3 0 0.0 0.0 0.00 0.00 0.00 80 1010.4
20260508104550 3 0 0.0 0.0 0.00 0.00 0.00 81 1010.3
20260508103102 3 0 0.0 0.0 0.00 0.00 0.00 81 1010.2